This demonstration page uses our WeatherBlox Daily Observations layout. Learn more.

Left ArrowRight Arrow

44.8408, -93.29828

Hourly Observations for July 6, 2017

Temp ( °F °C ) Dew Point ( °F °C ) Humidity (%) Winds ( mph kmh ) Pressure ( in mb ) Visibility ( mi km ) Precip ( " mm )
12:53 am 00:53 Clear 81 27.2 63 17.2 54 54 SSW 6 9 29.91 1013 10 16 0.00 0.00
1:53 am 01:53 Clear 80 26.7 64 17.8 58 58 SW 7 11 29.92 1013 10 16 0.00 0.00
2:53 am 02:53 Clear 78 25.6 64 17.8 62 62 SSW 6 9 29.93 1014 10 16 0.00 0.00
3:53 am 03:53 Clear 77 25 64 17.8 64 64 SW 7 11 29.94 1014 10 16 0.00 0.00
4:53 am 04:53 Mostly Cloudy 77 25 64 17.8 64 64 SW 7 11 29.92 1013 10 16 0.00 0.00
5:53 am 05:53 Cloudy 77 25 64 17.8 64 64 NW 10 17 29.96 1015 10 16 0.00 0.00
6:53 am 06:53 Mostly Cloudy 76 24.4 64 17.8 67 67 WNW 5 7 29.96 1015 10 16 0.00 0.00
7:53 am 07:53 Cloudy 76 24.4 65 18.3 69 69 Calm 29.95 1014 10 16 0.00 0.00
8:53 am 08:53 Cloudy 77 25 65 18.3 66 66 Calm 29.95 1014 10 16 0.00 0.00
9:53 am 09:53 Mostly Cloudy 78 25.6 67 19.4 69 69 NNE 5 7 29.97 1015 10 16 0.00 0.00
10:40 am 10:40 Mostly Cloudy 78 25.6 67 19.4 69 69 SSE 9 15 29.88 1012 10 16 0.00 0.00
10:53 am 10:53 Mostly Cloudy 81 27.2 68 20 65 65 SSE 8 13 29.89 1012 10 16 0.00 0.00
11:53 am 11:53 Mostly Sunny 85 29.4 65 18.3 51 51 VRB 6 9 29.91 1013 10 16 0.00 0.00
12:53 pm 12:53 Sunny 88 31.1 64 17.8 45 45 SSW 7 11 29.89 1012 10 16 0.00 0.00
1:53 pm 13:53 Sunny 90 32.2 65 18.3 44 44 W 6 9 29.88 1012 10 16 0.00 0.00
2:53 pm 14:53 Sunny 92 33.3 64 17.8 40 40 NW 10 17 29.87 1011 10 16 0.00 0.00
3:53 pm 15:53 Mostly Sunny 93 33.9 63 17.2 37 37 WNW 9 15 29.85 1011 10 16 0.00 0.00
4:53 pm 16:53 Partly Cloudy 91 32.8 63 17.2 39 39 NW 14 22 29.86 1011 10 16 0.00 0.00
5:53 pm 17:53 Partly Cloudy 93 33.9 64 17.8 38 38 NW 14 22 29.86 1011 10 16 0.00 0.00
6:53 pm 18:53 Partly Cloudy 90 32.2 63 17.2 41 41 NW 9 15 29.86 1011 10 16 0.00 0.00
7:53 pm 19:53 Mostly Sunny 88 31.1 64 17.8 45 45 NW 12 19 29.85 1011 10 16 0.00 0.00
8:53 pm 20:53 Mostly Sunny 86 30 65 18.3 49 49 NW 12 19 29.85 1011 10 16 0.00 0.00
9:53 pm 21:53 Mostly Clear 85 29.4 65 18.3 51 51 NW 17 28 29.86 1011 10 16 0.00 0.00
10:53 pm 22:53 Partly Cloudy 81 27.2 57 13.9 44 44 N 17 28 29.91 1013 10 16 0.00 0.00
11:53 pm 23:53 Mostly Cloudy 78 25.6 53 11.7 42 42 N 17 28 29.94 1014 10 16 0.00 0.00

Powered by AerisWeather